{"data":{"norad_id":33056,"intl_designator":"2008-030B","name":"TURKSAT 3A","alt_names":[],"object_type":"PAYLOAD","status":"ACTIVE","operator":null,"country":"TURK","launch_date":"2008-06-12","launch_site_code":"FRGUI","launch_vehicle":null,"mission":null,"orbit_class":"UNKNOWN","rcs_meters":24.7919,"size_class":null,"mass_kg":null,"dimensions":null,"purposes":["comms"],"wikipedia_slug":null,"has_3d_model":false,"image_url":null,"decayed_at":null,"tle_current":{"epoch":"2026-05-25T03:56:31.122240Z","epoch_age_seconds":71558,"freshness":"FRESH","line1":"1 33056U 08030B   26145.16424910  .00000144  00000+0  00000+0 0  9990","line2":"2 33056   0.0805  84.9255 0005132 332.4345 286.5098  1.00273193 52124","mean_motion":1.00273193,"eccentricity":0.0005132,"inclination_deg":0.0805,"raan_deg":84.9255,"arg_perigee_deg":332.4345,"mean_anomaly_deg":286.5098,"bstar":0,"rev_number":5212,"period_min":1436.0767388748,"perigee_km":35764.56151442,"apogee_km":35807.838990175,"semimajor_km":42164.337252297,"source":"CELESTRAK","updated_at":"2026-05-25T13:38:13.859485Z"}}}